| time (UTC) | temp F | wind direction | speed MPH | gust MPH | rain 1hr in | rain 24hr in | rain mn in | humidity % | barometer mb |
| 20260507015056 | 68 | 265 | 4.0 | 14.0 | 0.00 | 0.00 | 0.00 | 61 | 1014.4 |
| 20260507014556 | 68 | 238 | 8.0 | 14.0 | 0.00 | 0.00 | 0.00 | 61 | 1014.3 |
| 20260507014056 | 68 | 245 | 5.0 | 14.0 | 0.00 | 0.00 | 0.00 | 60 | 1014.4 |
| 20260507013556 | 69 | 279 | 11.0 | 14.0 | 0.00 | 0.00 | 0.00 | 59 | 1014.2 |
| 20260507013055 | 69 | 283 | 6.0 | 13.0 | 0.00 | 0.00 | 0.00 | 59 | 1014.3 |
| 20260507012555 | 69 | 276 | 8.0 | 14.0 | 0.00 | 0.00 | 0.00 | 59 | 1014.2 |
| 20260507012055 | 70 | 242 | 12.0 | 15.0 | 0.00 | 0.00 | 0.00 | 58 | 1014.2 |
| 20260507011555 | 70 | 262 | 11.0 | 15.0 | 0.00 | 0.00 | 0.00 | 57 | 1014.1 |
| 20260507011055 | 70 | 269 | 8.0 | 15.0 | 0.00 | 0.00 | 0.00 | 57 | 1014.2 |
| 20260507010555 | 70 | 232 | 6.0 | 15.0 | 0.00 | 0.00 | 0.00 | 57 | 1014.2 |
| 20260507010054 | 70 | 260 | 6.0 | 15.0 | 0.00 | 0.00 | 0.00 | 56 | 1014.1 |
| 20260507005555 | 70 | 300 | 7.0 | 13.0 | 0.00 | 0.00 | 0.00 | 55 | 1014.1 |
| 20260507005055 | 70 | 273 | 11.0 | 14.0 | 0.00 | 0.00 | 0.00 | 55 | 1014.0 |
| 20260507004554 | 71 | 284 | 9.0 | 14.0 | 0.00 | 0.00 | 0.00 | 55 | 1014.0 |
| 20260507004054 | 71 | 288 | 11.0 | 14.0 | 0.00 | 0.00 | 0.00 | 54 | 1014.1 |
| 20260507003553 | 71 | 284 | 7.0 | 14.0 | 0.00 | 0.00 | 0.00 | 55 | 1014.1 |
| 20260507003053 | 71 | 243 | 5.0 | 14.0 | 0.00 | 0.00 | 0.00 | 55 | 1014.0 |
| 20260507002554 | 71 | 275 | 7.0 | 16.0 | 0.00 | 0.00 | 0.00 | 56 | 1014.1 |
| 20260507002053 | 71 | 294 | 12.0 | 16.0 | 0.00 | 0.00 | 0.00 | 55 | 1014.0 |
| 20260507001553 | 71 | 272 | 8.0 | 14.0 | 0.00 | 0.00 | 0.00 | 55 | 1014.0 |
| 20260507001053 | 71 | 268 | 8.0 | 15.0 | 0.00 | 0.00 | 0.00 | 55 | 1014.0 |
| 20260507000552 | 71 | 297 | 10.0 | 17.0 | 0.00 | 0.00 | 0.00 | 56 | 1013.9 |
| 20260507000052 | 71 | 281 | 7.0 | 17.0 | 0.00 | 0.00 | 0.00 | 55 | 1013.8 |
| 20260506235552 | 72 | 290 | 16.0 | 17.0 | 0.00 | 0.00 | 0.00 | 55 | 1013.8 |
| 20260506235053 | 72 | 242 | 9.0 | 17.0 | 0.00 | 0.00 | 0.00 | 53 | 1013.8 |
| 20260506234553 | 72 | 284 | 8.0 | 15.0 | 0.00 | 0.00 | 0.00 | 53 | 1013.8 |
| 20260506234052 | 72 | 254 | 2.0 | 14.0 | 0.00 | 0.00 | 0.00 | 53 | 1013.7 |
| 20260506233552 | 72 | 242 | 9.0 | 15.0 | 0.00 | 0.00 | 0.00 | 53 | 1013.8 |
| 20260506232551 | 72 | 294 | 9.0 | 18.0 | 0.00 | 0.00 | 0.00 | 52 | 1013.8 |
| 20260506232051 | 73 | 280 | 4.0 | 20.0 | 0.00 | 0.00 | 0.00 | 52 | 1014.0 |
| 20260506231551 | 73 | 279 | 14.0 | 20.0 | 0.00 | 0.00 | 0.00 | 51 | 1014.1 |
| 20260506231051 | 73 | 207 | 4.0 | 17.0 | 0.00 | 0.00 | 0.00 | 51 | 1014.0 |
| 20260506230551 | 73 | 289 | 8.0 | 14.0 | 0.00 | 0.00 | 0.00 | 51 | 1014.0 |
| 20260506230051 | 73 | 205 | 8.0 | 14.0 | 0.00 | 0.00 | 0.00 | 51 | 1014.1 |
| 20260506225050 | 73 | 278 | 9.0 | 13.0 | 0.00 | 0.00 | 0.00 | 51 | 1014.2 |
| 20260506224050 | 73 | 273 | 11.0 | 16.0 | 0.00 | 0.00 | 0.00 | 51 | 1014.3 |
| 20260506223050 | 73 | 205 | 5.0 | 15.0 | 0.00 | 0.00 | 0.00 | 52 | 1014.3 |
| 20260506222550 | 73 | 272 | 14.0 | 14.0 | 0.00 | 0.00 | 0.00 | 51 | 1014.4 |
| 20260506222050 | 73 | 249 | 5.0 | 17.0 | 0.00 | 0.00 | 0.00 | 52 | 1014.4 |
| 20260506221550 | 73 | 256 | 8.0 | 17.0 | 0.00 | 0.00 | 0.00 | 53 | 1014.6 |
| 20260506221049 | 72 | 232 | 6.0 | 16.0 | 0.00 | 0.00 | 0.00 | 52 | 1014.5 |
| 20260506220549 | 73 | 287 | 4.0 | 16.0 | 0.00 | 0.00 | 0.00 | 52 | 1014.6 |
| 20260506215549 | 73 | 265 | 11.0 | 19.0 | 0.00 | 0.00 | 0.00 | 51 | 1014.9 |
| 20260506215048 | 73 | 240 | 4.0 | 15.0 | 0.00 | 0.00 | 0.00 | 51 | 1014.8 |
| 20260506214048 | 73 | 296 | 8.0 | 14.0 | 0.00 | 0.00 | 0.00 | 50 | 1015.0 |
| 20260506213548 | 72 | 323 | 9.0 | 17.0 | 0.00 | 0.00 | 0.00 | 50 | 1014.9 |
| 20260506213048 | 72 | 232 | 5.0 | 17.0 | 0.00 | 0.00 | 0.00 | 50 | 1015.0 |
| 20260506212547 | 72 | 294 | 3.0 | 13.0 | 0.00 | 0.00 | 0.00 | 49 | 1015.0 |
| 20260506212047 | 73 | 270 | 9.0 | 13.0 | 0.00 | 0.00 | 0.00 | 49 | 1015.2 |
| 20260506211548 | 72 | 333 | 5.0 | 13.0 | 0.00 | 0.00 | 0.00 | 49 | 1015.1 |
| 20260506210548 | 72 | 224 | 7.0 | 14.0 | 0.00 | 0.00 | 0.00 | 49 | 1015.3 |
| 20260506210047 | 72 | 273 | 6.0 | 16.0 | 0.00 | 0.00 | 0.00 | 50 | 1015.4 |
| 20260506205547 | 72 | 263 | 10.0 | 16.0 | 0.00 | 0.00 | 0.00 | 50 | 1015.5 |
| 20260506205047 | 72 | 261 | 12.0 | 12.0 | 0.00 | 0.00 | 0.00 | 49 | 1015.6 |
| 20260506204546 | 71 | 278 | 6.0 | 15.0 | 0.00 | 0.00 | 0.00 | 50 | 1015.5 |
| 20260506204046 | 71 | 325 | 4.0 | 15.0 | 0.00 | 0.00 | 0.00 | 51 | 1015.6 |
| 20260506203546 | 71 | 355 | 8.0 | 10.0 | 0.00 | 0.00 | 0.00 | 52 | 1015.6 |
| 20260506203046 | 70 | 263 | 8.0 | 11.0 | 0.00 | 0.00 | 0.00 | 51 | 1015.6 |
| 20260506202545 | 71 | 280 | 8.0 | 14.0 | 0.00 | 0.00 | 0.00 | 51 | 1015.7 |
| 20260506201545 | 70 | 304 | 9.0 | 14.0 | 0.00 | 0.00 | 0.00 | 52 | 1015.7 |
| 20260506201045 | 71 | 281 | 10.0 | 14.0 | 0.00 | 0.00 | 0.00 | 52 | 1015.7 |
| 20260506200545 | 70 | 345 | 4.0 | 11.0 | 0.00 | 0.00 | 0.00 | 52 | 1015.9 |
| 20260506200045 | 71 | 68 | 0.0 | 11.0 | 0.00 | 0.00 | 0.00 | 52 | 1016.0 |
| 20260506195545 | 70 | 304 | 8.0 | 13.0 | 0.00 | 0.00 | 0.00 | 52 | 1016.1 |
| 20260506195044 | 70 | 323 | 4.0 | 13.0 | 0.00 | 0.00 | 0.00 | 53 | 1016.2 |
| 20260506194044 | 70 | 320 | 3.0 | 14.0 | 0.00 | 0.00 | 0.00 | 54 | 1016.3 |
| 20260506193544 | 69 | 257 | 8.0 | 14.0 | 0.00 | 0.00 | 0.00 | 54 | 1016.3 |
| 20260506192544 | 69 | 288 | 5.0 | 12.0 | 0.00 | 0.00 | 0.00 | 54 | 1016.4 |
| 20260506192044 | 69 | 295 | 4.0 | 12.0 | 0.00 | 0.00 | 0.00 | 54 | 1016.4 |
| 20260506191544 | 69 | 288 | 8.0 | 12.0 | 0.00 | 0.00 | 0.00 | 54 | 1016.5 |
| 20260506191043 | 69 | 270 | 10.0 | 12.0 | 0.00 | 0.00 | 0.00 | 54 | 1016.5 |
| 20260506190043 | 68 | 40 | 2.0 | 13.0 | 0.00 | 0.00 | 0.00 | 54 | 1016.6 |
| 20260506185543 | 69 | 61 | 3.0 | 13.0 | 0.00 | 0.00 | 0.00 | 53 | 1016.7 |
| 20260506185042 | 68 | 177 | 0.0 | 5.0 | 0.00 | 0.00 | 0.00 | 55 | 1016.7 |
| 20260506184543 | 68 | 350 | 4.0 | 6.0 | 0.00 | 0.00 | 0.00 | 55 | 1016.8 |
| 20260506184042 | 68 | 330 | 4.0 | 6.0 | 0.00 | 0.00 | 0.00 | 56 | 1016.9 |
| 20260506183542 | 68 | 17 | 1.0 | 7.0 | 0.00 | 0.00 | 0.00 | 56 | 1016.9 |
| 20260506183042 | 68 | 76 | 5.0 | 8.0 | 0.00 | 0.00 | 0.00 | 59 | 1017.0 |
| 20260506182542 | 67 | 65 | 4.0 | 8.0 | 0.00 | 0.00 | 0.00 | 57 | 1017.0 |
| 20260506182042 | 67 | 16 | 7.0 | 7.0 | 0.00 | 0.00 | 0.00 | 59 | 1017.1 |
| 20260506181541 | 66 | 85 | 1.0 | 6.0 | 0.00 | 0.00 | 0.00 | 59 | 1017.0 |
| 20260506181041 | 66 | 51 | 4.0 | 6.0 | 0.00 | 0.00 | 0.00 | 60 | 1017.0 |
| 20260506180611 | 66 | 80 | 0.0 | 8.0 | 0.00 | 0.01 | 0.00 | 61 | 1017.0 |
| 20260506180041 | 65 | 349 | 6.0 | 8.0 | 0.00 | 0.01 | 0.00 | 62 | 1017.0 |
| 20260506175541 | 65 | 67 | 4.0 | 5.0 | 0.00 | 0.01 | 0.00 | 62 | 1017.1 |
| 20260506174040 | 63 | 70 | 0.0 | 5.0 | 0.00 | 0.01 | 0.00 | 64 | 1017.0 |
| 20260506173540 | 63 | 177 | 0.0 | 8.0 | 0.00 | 0.01 | 0.00 | 66 | 1017.0 |
| 20260506172540 | 63 | 36 | 1.0 | 8.0 | 0.00 | 0.01 | 0.00 | 66 | 1017.1 |
| 20260506172041 | 63 | 121 | 3.0 | 8.0 | 0.00 | 0.01 | 0.00 | 67 | 1017.1 |
| 20260506171540 | 62 | 336 | 3.0 | 9.0 | 0.00 | 0.01 | 0.00 | 67 | 1017.1 |
| 20260506171039 | 62 | 73 | 0.0 | 9.0 | 0.00 | 0.01 | 0.00 | 66 | 1017.3 |
| 20260506170539 | 62 | 76 | 2.0 | 8.0 | 0.00 | 0.01 | 0.00 | 67 | 1017.2 |
| 20260506170109 | 62 | 40 | 2.0 | 7.0 | 0.00 | 0.01 | 0.00 | 69 | 1017.1 |
| 20260506165539 | 61 | 24 | 0.0 | 6.0 | 0.00 | 0.01 | 0.00 | 69 | 1017.1 |
| 20260506165039 | 61 | 355 | 1.0 | 6.0 | 0.00 | 0.01 | 0.00 | 68 | 1017.1 |
| 20260506164609 | 61 | 109 | 6.0 | 6.0 | 0.00 | 0.01 | 0.00 | 71 | 1017.2 |
| 20260506163608 | 60 | 41 | 4.0 | 7.0 | 0.00 | 0.01 | 0.00 | 70 | 1017.2 |
| 20260506163108 | 60 | 21 | 7.0 | 7.0 | 0.00 | 0.01 | 0.00 | 73 | 1017.2 |
| 20260506162108 | 60 | 69 | 4.0 | 7.0 | 0.00 | 0.01 | 0.00 | 72 | 1017.2 |
| 20260506161608 | 60 | 61 | 1.0 | 7.0 | 0.00 | 0.01 | 0.00 | 73 | 1017.2 |
| 20260506161107 | 60 | 80 | 4.0 | 7.0 | 0.00 | 0.01 | 0.00 | 73 | 1017.2 |
| 20260506160607 | 60 | 53 | 6.0 | 6.0 | 0.00 | 0.01 | 0.00 | 74 | 1017.2 |
| 20260506155608 | 58 | 88 | 5.0 | 7.0 | 0.00 | 0.01 | 0.00 | 76 | 1017.1 |
| 20260506155037 | 58 | 108 | 3.0 | 7.0 | 0.00 | 0.01 | 0.00 | 76 | 1017.1 |
| 20260506154607 | 58 | 60 | 3.0 | 6.0 | 0.00 | 0.01 | 0.00 | 77 | 1017.2 |
| 20260506153606 | 58 | 60 | 2.0 | 6.0 | 0.00 | 0.01 | 0.00 | 79 | 1017.3 |
| 20260506152606 | 57 | 92 | 0.0 | 5.0 | 0.00 | 0.01 | 0.00 | 79 | 1017.3 |
| 20260506151606 | 57 | 84 | 2.0 | 7.0 | 0.00 | 0.01 | 0.00 | 82 | 1017.3 |
| 20260506150606 | 56 | 89 | 4.0 | 4.0 | 0.00 | 0.01 | 0.00 | 84 | 1017.2 |
| 20260506145605 | 56 | 85 | 1.0 | 4.0 | 0.00 | 0.01 | 0.00 | 86 | 1017.2 |
| 20260506145105 | 55 | 62 | 2.0 | 4.0 | 0.00 | 0.01 | 0.00 | 87 | 1017.3 |
| 20260506144605 | 55 | 80 | 2.0 | 4.0 | 0.00 | 0.01 | 0.00 | 88 | 1017.3 |
| 20260506144105 | 55 | 72 | 0.0 | 2.0 | 0.00 | 0.01 | 0.00 | 90 | 1017.3 |
| 20260506143605 | 55 | 78 | 0.0 | 2.0 | 0.00 | 0.01 | 0.00 | 90 | 1017.2 |
| 20260506143105 | 55 | 84 | 2.0 | 2.0 | 0.00 | 0.01 | 0.00 | 91 | 1017.2 |
| 20260506142604 | 54 | 98 | 0.0 | 2.0 | 0.00 | 0.01 | 0.00 | 92 | 1017.0 |
| 20260506142104 | 54 | 82 | 1.0 | 2.0 | 0.00 | 0.01 | 0.00 | 93 | 1017.1 |
| 20260506141604 | 53 | 82 | 0.0 | 0.0 | 0.00 | 0.01 | 0.00 | 93 | 1017.0 |
| 20260506141104 | 52 | 82 | 0.0 | 0.0 | 0.00 | 0.01 | 0.00 | 94 | 1017.0 |
| 20260506140604 | 51 | 82 | 0.0 | 0.0 | 0.00 | 0.01 | 0.00 | 92 | 1017.1 |
| 20260506140103 | 52 | 82 | 0.0 | 0.0 | 0.00 | 0.01 | 0.00 | 94 | 1017.0 |
| 20260506135603 | 51 | 82 | 0.0 | 0.0 | 0.00 | 0.01 | 0.00 | 93 | 1016.9 |
| 20260506135104 | 51 | 82 | 0.0 | 0.0 | 0.00 | 0.01 | 0.00 | 93 | 1016.9 |
| 20260506134603 | 51 | 82 | 0.0 | 0.0 | 0.00 | 0.01 | 0.00 | 93 | 1016.9 |
| 20260506134103 | 51 | 82 | 0.0 | 1.0 | 0.00 | 0.01 | 0.00 | 93 | 1016.9 |
| 20260506133603 | 50 | 82 | 0.0 | 2.0 | 0.00 | 0.01 | 0.00 | 93 | 1016.8 |
| 20260506133102 | 50 | 193 | 0.0 | 2.0 | 0.00 | 0.01 | 0.00 | 93 | 1016.8 |
| 20260506132603 | 50 | 155 | 1.0 | 2.0 | 0.00 | 0.01 | 0.00 | 93 | 1016.7 |
| 20260506131602 | 49 | 117 | 1.0 | 2.0 | 0.00 | 0.01 | 0.00 | 92 | 1016.6 |
| 20260506131102 | 49 | 209 | 1.0 | 2.0 | 0.00 | 0.01 | 0.00 | 92 | 1016.5 |
| 20260506125602 | 49 | 160 | 0.0 | 0.0 | 0.00 | 0.01 | 0.00 | 92 | 1016.4 |
| 20260506125101 | 49 | 160 | 0.0 | 0.0 | 0.00 | 0.01 | 0.00 | 92 | 1016.4 |
| 20260506124601 | 49 | 160 | 0.0 | 0.0 | 0.00 | 0.01 | 0.00 | 91 | 1016.3 |
| 20260506124101 | 49 | 160 | 0.0 | 0.0 | 0.00 | 0.01 | 0.00 | 91 | 1016.4 |
| 20260506123601 | 49 | 160 | 0.0 | 0.0 | 0.00 | 0.01 | 0.00 | 91 | 1016.3 |
| 20260506123101 | 50 | 160 | 0.0 | 0.0 | 0.00 | 0.01 | 0.00 | 91 | 1016.3 |
| 20260506122100 | 50 | 160 | 0.0 | 0.0 | 0.00 | 0.01 | 0.00 | 91 | 1016.2 |
| 20260506121600 | 50 | 160 | 0.0 | 0.0 | 0.00 | 0.01 | 0.00 | 91 | 1016.2 |
| 20260506121100 | 50 | 160 | 0.0 | 0.0 | 0.00 | 0.01 | 0.00 | 92 | 1016.1 |
| 20260506120601 | 50 | 160 | 0.0 | 0.0 | 0.00 | 0.01 | 0.00 | 91 | 1016.1 |
| 20260506115600 | 50 | 121 | 0.0 | 0.0 | 0.00 | 0.01 | 0.00 | 91 | 1016.1 |
| 20260506115059 | 50 | 121 | 0.0 | 0.0 | 0.00 | 0.02 | 0.00 | 91 | 1016.1 |
| 20260506114559 | 50 | 121 | 0.0 | 0.0 | 0.00 | 0.03 | 0.00 | 90 | 1016.1 |
| 20260506114059 | 51 | 121 | 0.0 | 0.0 | 0.00 | 0.03 | 0.00 | 91 | 1016.2 |
| 20260506113559 | 51 | 121 | 0.0 | 0.0 | 0.00 | 0.04 | 0.00 | 91 | 1016.2 |
| 20260506113059 | 51 | 111 | 0.0 | 0.0 | 0.00 | 0.04 | 0.00 | 91 | 1016.1 |
| 20260506112558 | 50 | 182 | 0.0 | 0.0 | 0.00 | 0.04 | 0.00 | 91 | 1016.0 |
| 20260506112058 | 50 | 182 | 0.0 | 0.0 | 0.00 | 0.05 | 0.00 | 91 | 1016.0 |
| 20260506111559 | 50 | 182 | 0.0 | 0.0 | 0.00 | 0.06 | 0.00 | 91 | 1016.0 |
| 20260506111058 | 50 | 182 | 0.0 | 0.0 | 0.00 | 0.06 | 0.00 | 91 | 1015.9 |
| 20260506110558 | 50 | 182 | 0.0 | 0.0 | 0.00 | 0.07 | 0.00 | 91 | 1015.9 |
| 20260506105557 | 51 | 193 | 0.0 | 2.0 | 0.00 | 0.08 | 0.00 | 90 | 1015.9 |
| 20260506105057 | 51 | 193 | 0.0 | 3.0 | 0.00 | 0.09 | 0.00 | 90 | 1015.9 |
| 20260506104558 | 51 | 193 | 1.0 | 3.0 | 0.00 | 0.10 | 0.00 | 90 | 1015.9 |
| 20260506104057 | 51 | 193 | 2.0 | 3.0 | 0.00 | 0.10 | 0.00 | 90 | 1015.9 |
| 20260506103557 | 52 | 215 | 2.0 | 2.0 | 0.00 | 0.10 | 0.00 | 89 | 1016.1 |
| 20260506103057 | 52 | 217 | 0.0 | 0.0 | 0.00 | 0.10 | 0.00 | 89 | 1016.1 |
| 20260506102556 | 52 | 217 | 0.0 | 0.0 | 0.00 | 0.10 | 0.00 | 89 | 1016.0 |
| 20260506102057 | 52 | 217 | 0.0 | 0.0 | 0.00 | 0.10 | 0.00 | 89 | 1016.0 |
| 20260506101056 | 53 | 217 | 0.0 | 3.0 | 0.00 | 0.10 | 0.00 | 89 | 1016.0 |
| 20260506100557 | 53 | 217 | 0.0 | 4.0 | 0.00 | 0.10 | 0.00 | 89 | 1016.0 |
| 20260506100056 | 53 | 219 | 0.0 | 5.0 | 0.00 | 0.11 | 0.00 | 89 | 1016.0 |
| 20260506095556 | 53 | 194 | 2.0 | 7.0 | 0.00 | 0.11 | 0.00 | 89 | 1016.1 |
| 20260506095056 | 53 | 221 | 1.0 | 9.0 | 0.00 | 0.11 | 0.00 | 89 | 1016.1 |
| 20260506094555 | 53 | 238 | 3.0 | 9.0 | 0.00 | 0.11 | 0.00 | 90 | 1016.0 |
| 20260506094055 | 54 | 210 | 4.0 | 7.0 | 0.00 | 0.11 | 0.00 | 89 | 1016.1 |
| 20260506093555 | 54 | 200 | 4.0 | 7.0 | 0.00 | 0.11 | 0.00 | 89 | 1016.1 |
| 20260506093055 | 54 | 229 | 3.0 | 9.0 | 0.00 | 0.11 | 0.00 | 89 | 1016.2 |
| 20260506092555 | 54 | 211 | 5.0 | 9.0 | 0.00 | 0.11 | 0.00 | 89 | 1016.1 |
| 20260506092055 | 54 | 211 | 4.0 | 11.0 | 0.00 | 0.11 | 0.00 | 89 | 1016.1 |
| 20260506091555 | 54 | 213 | 8.0 | 11.0 | 0.00 | 0.11 | 0.00 | 89 | 1016.2 |
| 20260506091055 | 54 | 211 | 10.0 | 11.0 | 0.00 | 0.11 | 0.00 | 88 | 1016.1 |
| 20260506090054 | 54 | 225 | 8.0 | 11.0 | 0.00 | 0.11 | 0.00 | 89 | 1016.2 |
| 20260506085554 | 53 | 216 | 6.0 | 10.0 | 0.00 | 0.11 | 0.00 | 88 | 1016.2 |
| 20260506085054 | 53 | 255 | 5.0 | 10.0 | 0.00 | 0.11 | 0.00 | 88 | 1016.2 |
| 20260506084053 | 53 | 225 | 4.0 | 9.0 | 0.00 | 0.11 | 0.00 | 88 | 1016.4 |
| 20260506083553 | 53 | 221 | 7.0 | 9.0 | 0.00 | 0.11 | 0.00 | 88 | 1016.4 |
| 20260506083053 | 53 | 242 | 8.0 | 8.0 | 0.00 | 0.11 | 0.00 | 87 | 1016.5 |
| 20260506082553 | 53 | 224 | 5.0 | 8.0 | 0.00 | 0.11 | 0.00 | 87 | 1016.5 |
| 20260506082053 | 53 | 213 | 6.0 | 7.0 | 0.00 | 0.11 | 0.00 | 87 | 1016.5 |
| 20260506081552 | 53 | 227 | 4.0 | 5.0 | 0.00 | 0.11 | 0.00 | 86 | 1016.5 |
| 20260506081052 | 53 | 212 | 3.0 | 4.0 | 0.00 | 0.11 | 0.00 | 86 | 1016.5 |
| 20260506080552 | 53 | 219 | 3.0 | 4.0 | 0.00 | 0.11 | 0.00 | 86 | 1016.6 |
| 20260506073051 | 54 | 236 | 2.0 | 4.0 | 0.00 | 0.11 | 0.00 | 84 | 1016.4 |
| 20260506072051 | 54 | 166 | 0.0 | 2.0 | 0.00 | 0.11 | 0.00 | 84 | 1016.4 |
| 20260506071550 | 54 | 155 | 1.0 | 3.0 | 0.00 | 0.11 | 0.00 | 83 | 1016.4 |
| 20260506071050 | 54 | 142 | 0.0 | 7.0 | 0.00 | 0.11 | 0.00 | 84 | 1016.4 |
| 20260506070551 | 55 | 250 | 2.0 | 7.0 | 0.00 | 0.11 | 0.00 | 83 | 1016.4 |
| 20260506062050 | 55 | 194 | 0.0 | 4.0 | 0.00 | 0.11 | 0.11 | 80 | 1016.1 |
| 20260506061549 | 55 | 192 | 0.0 | 4.0 | 0.00 | 0.11 | 0.11 | 80 | 1016.1 |
| 20260506060549 | 56 | 184 | 0.0 | 7.0 | 0.00 | 0.11 | 0.11 | 80 | 1016.0 |
| 20260506051047 | 56 | 302 | 3.0 | 10.0 | 0.00 | 0.11 | 0.11 | 77 | 1015.5 |
| 20260506050546 | 56 | 253 | 7.0 | 9.0 | 0.00 | 0.11 | 0.11 | 77 | 1015.5 |
| 20260506044546 | 56 | 203 | 10.0 | 13.0 | 0.00 | 0.11 | 0.11 | 75 | 1015.0 |
| 20260506044046 | 56 | 202 | 4.0 | 13.0 | 0.00 | 0.11 | 0.11 | 75 | 1015.0 |
| 20260506043546 | 56 | 208 | 9.0 | 13.0 | 0.00 | 0.11 | 0.11 | 74 | 1014.9 |
| 20260506043046 | 56 | 254 | 9.0 | 10.0 | 0.00 | 0.11 | 0.11 | 74 | 1014.9 |
| 20260506042546 | 57 | 190 | 3.0 | 12.0 | 0.00 | 0.11 | 0.11 | 74 | 1014.8 |
| 20260506042045 | 57 | 191 | 5.0 | 13.0 | 0.00 | 0.11 | 0.11 | 74 | 1014.8 |
| 20260506041545 | 57 | 288 | 4.0 | 13.0 | 0.00 | 0.11 | 0.11 | 73 | 1014.7 |
| 20260506041045 | 57 | 180 | 2.0 | 10.0 | 0.00 | 0.11 | 0.11 | 73 | 1014.7 |
| 20260506040545 | 57 | 213 | 3.0 | 10.0 | 0.00 | 0.11 | 0.11 | 72 | 1014.7 |
| 20260506040045 | 57 | 240 | 4.0 | 11.0 | 0.00 | 0.11 | 0.11 | 72 | 1014.7 |
| 20260506035544 | 57 | 265 | 7.0 | 11.0 | 0.00 | 0.11 | 0.11 | 71 | 1014.5 |
| 20260506035045 | 58 | 267 | 1.0 | 11.0 | 0.00 | 0.11 | 0.11 | 70 | 1014.4 |
| 20260506034544 | 58 | 187 | 7.0 | 15.0 | 0.00 | 0.11 | 0.11 | 70 | 1014.3 |
| 20260506034044 | 58 | 234 | 5.0 | 15.0 | 0.00 | 0.11 | 0.11 | 69 | 1014.1 |
| 20260506033043 | 58 | 233 | 6.0 | 10.0 | 0.00 | 0.11 | 0.11 | 67 | 1014.0 |
| 20260506032543 | 58 | 244 | 4.0 | 7.0 | 0.00 | 0.11 | 0.11 | 65 | 1014.0 |
| 20260506032043 | 58 | 261 | 3.0 | 8.0 | 0.00 | 0.11 | 0.11 | 64 | 1013.9 |
| 20260506031043 | 59 | 269 | 4.0 | 10.0 | 0.00 | 0.11 | 0.11 | 63 | 1014.1 |
| 20260506030042 | 59 | 206 | 3.0 | 8.0 | 0.00 | 0.11 | 0.11 | 63 | 1013.9 |
| 20260506025542 | 59 | 238 | 4.0 | 7.0 | 0.00 | 0.11 | 0.11 | 63 | 1013.6 |
| 20260506024542 | 59 | 229 | 2.0 | 7.0 | 0.00 | 0.11 | 0.11 | 62 | 1013.4 |
| 20260506024041 | 60 | 258 | 4.0 | 6.0 | 0.00 | 0.11 | 0.11 | 61 | 1013.4 |
| 20260506023042 | 60 | 233 | 3.0 | 9.0 | 0.00 | 0.11 | 0.11 | 60 | 1013.2 |
| 20260506022542 | 61 | 237 | 3.0 | 12.0 | 0.00 | 0.11 | 0.11 | 60 | 1013.2 |
| 20260506022041 | 61 | 270 | 6.0 | 12.0 | 0.00 | 0.11 | 0.11 | 59 | 1013.1 |
| 20260506021541 | 61 | 295 | 7.0 | 12.0 | 0.00 | 0.11 | 0.11 | 59 | 1013.1 |
| 20260506020111 | 62 | 256 | 9.0 | 14.0 | 0.00 | 0.11 | 0.11 | 57 | 1013.1 |
| 20260506015611 | 62 | 273 | 6.0 | 13.0 | 0.00 | 0.11 | 0.11 | 57 | 1012.9 |
| 20260506015110 | 62 | 276 | 8.0 | 12.0 | 0.00 | 0.11 | 0.11 | 56 | 1012.8 |